"Pseudo-MPEC" for P11XLcY

Created 2024 Sep 11 2:22:09 UT using Find_Orb

Click here for an explanation of pseudo-MPECs

 
 Astrometry: 
     P11XLcY* C2024 09 01.39126521 24 30.942+06 46 16.57   ~91K7 21.75wXNEOCPF51
     P11XLcY  C2024 09 01.41200621 24 31.263+06 46 09.74   ~91K7 21.75wXNEOCPF51
     P11XLcY  C2024 09 01.42401521 24 31.446+06 46 06.38   ~91K7 21.77wXNEOCPF51

Station data:
(F51) Pan-STARRS 1, Haleakala  (N20.707234 W156.255910)  US/Hawaii.
   Observers J. Bulger, T. Lowe, A. Schultz, M. Willman. Measurers K.
   Chambers, S. Chastel, T. de Boer, L. Denneau, J. Fairlamb, H. Flewelling,
   M. Huber, C.-C. Lin, E. Magnier, Y. Ramanjooloo, R. Wainscoat, R. Weryk.
   1.8-m Ritchey-Chrétien + CCD.

Orbital elements:  P11XLcY
   Perihelion 2024 Sep 18.59182 +/- 46.5 TT = 14:12:12 (JD 2460572.09182)
Epoch 2024 Sep  1.0 TT = JDT 2460554.5   Earth MOID: 0.3603   Ma: 0.0592
M 354.97856987 +/- 19               (J2000 ecliptic)             AutoNEOCP
n   0.28544125 +/- 0.266            Peri.  123.41825 +/- 100
a   2.28450204 +/- 1.42             Node   224.87955 +/- 51
e   0.4081421 +/- 0.252             Incl.    6.06102 +/- 4.2
P   3.45293                H 22.14  G  0.15   U 11.9  SR
q 1.35210041 +/- 0.397    Q 3.21690368 +/- 140
From 3 observations 2024 Sept. 1 (47.2 min); mean residual 0".13
Residuals in arcseconds: 
240901 F51  .01-  .09+    240901 F51  .03+  .26-    240901 F51  .02-  .16+    

Ephemerides (geocentric):
Date (UTC) HH   RA             Dec           delta  r     elong  mag " sig PA
---- --------  ------------   ------------  ------ ------ -----  --- --------
2024 09 11 02  21 30 16.696   +05 40 03.54  .38168 1.3540 151.3 21.7  35d  88
2024 09 11 03  21 30 18.685   +05 39 43.02  .38172 1.3539 151.3 21.7  35d  88
2024 09 11 04  21 30 20.678   +05 39 22.48  .38176 1.3539 151.3 21.7  35d  88
2024 09 11 05  21 30 22.676   +05 39 01.91  .38180 1.3539 151.2 21.7  35d  88
2024 09 11 06  21 30 24.679   +05 38 41.32  .38184 1.3539 151.2 21.7  35d  88
2024 09 11 07  21 30 26.686   +05 38 20.72  .38188 1.3539 151.2 21.7  35d  88
2024 09 11 08  21 30 28.698   +05 38 00.09  .38192 1.3538 151.2 21.7  35d  88
2024 09 11 09  21 30 30.714   +05 37 39.43  .38196 1.3538 151.2 21.7  35d  88
2024 09 11 10  21 30 32.734   +05 37 18.76  .38200 1.3538 151.1 21.7  35d  88
2024 09 11 11  21 30 34.759   +05 36 58.07  .38204 1.3538 151.1 21.7  35d  88
2024 09 11 12  21 30 36.789   +05 36 37.35  .38209 1.3538 151.1 21.7  35d  88
2024 09 11 13  21 30 38.823   +05 36 16.61  .38213 1.3537 151.1 21.7  35d  88
2024 09 11 14  21 30 40.862   +05 35 55.85  .38217 1.3537 151.1 21.7  35d  88
2024 09 11 15  21 30 42.905   +05 35 35.07  .38221 1.3537 151.0 21.7  35d  88
2024 09 11 16  21 30 44.953   +05 35 14.27  .38225 1.3537 151.0 21.7  35d  88
2024 09 11 17  21 30 47.005   +05 34 53.45  .38230 1.3537 151.0 21.7  35d  88
2024 09 11 18  21 30 49.061   +05 34 32.60  .38234 1.3536 151.0 21.7  35d  88
2024 09 11 19  21 30 51.123   +05 34 11.74  .38238 1.3536 151.0 21.7  35d  88
2024 09 11 20  21 30 53.188   +05 33 50.85  .38243 1.3536 150.9 21.7  35d  88
2024 09 11 21  21 30 55.258   +05 33 29.95  .38247 1.3536 150.9 21.7  35d  88
2024 09 11 22  21 30 57.333   +05 33 09.02  .38251 1.3536 150.9 21.7  35d  88
2024 09 11 23  21 30 59.412   +05 32 48.07  .38256 1.3536 150.9 21.7  35d  88
2024 09 12 00  21 31 01.496   +05 32 27.11  .38260 1.3535 150.9 21.7  35d  88
2024 09 12 01  21 31 03.584   +05 32 06.12  .38264 1.3535 150.8 21.7  35d  88
2024 09 12 02  21 31 05.677   +05 31 45.11  .38269 1.3535 150.8 21.7  35d  88
2024 09 12 03  21 31 07.774   +05 31 24.08  .38273 1.3535 150.8 21.7  35d  88
2024 09 12 04  21 31 09.876   +05 31 03.03  .38278 1.3535 150.8 21.7  35d  88
2024 09 12 05  21 31 11.983   +05 30 41.96  .38282 1.3534 150.8 21.7  35d  88
2024 09 12 06  21 31 14.093   +05 30 20.88  .38287 1.3534 150.7 21.8  35d  88
2024 09 12 07  21 31 16.209   +05 29 59.77  .38291 1.3534 150.7 21.8  35d  88
2024 09 12 08  21 31 18.329   +05 29 38.64  .38296 1.3534 150.7 21.8  35d  88
2024 09 12 09  21 31 20.453   +05 29 17.49  .38300 1.3534 150.7 21.8  35d  88
2024 09 12 10  21 31 22.582   +05 28 56.33  .38305 1.3534 150.7 21.8  35d  88
2024 09 12 11  21 31 24.716   +05 28 35.14  .38310 1.3533 150.6 21.8  35d  88
2024 09 12 12  21 31 26.854   +05 28 13.94  .38314 1.3533 150.6 21.8  35d  87
2024 09 12 13  21 31 28.996   +05 27 52.71  .38319 1.3533 150.6 21.8  35d  87
2024 09 12 14  21 31 31.143   +05 27 31.47  .38323 1.3533 150.6 21.8  35d  87
2024 09 12 15  21 31 33.295   +05 27 10.20  .38328 1.3533 150.6 21.8  35d  87
2024 09 12 16  21 31 35.451   +05 26 48.92  .38333 1.3533 150.5 21.8  35d  87
2024 09 12 17  21 31 37.611   +05 26 27.62  .38338 1.3532 150.5 21.8  35d  87
2024 09 12 18  21 31 39.776   +05 26 06.30  .38342 1.3532 150.5 21.8  35d  87
2024 09 12 19  21 31 41.946   +05 25 44.96  .38347 1.3532 150.5 21.8  36d  87
2024 09 12 20  21 31 44.120   +05 25 23.61  .38352 1.3532 150.5 21.8  36d  87
2024 09 12 21  21 31 46.299   +05 25 02.23  .38357 1.3532 150.4 21.8  36d  87
2024 09 12 22  21 31 48.482   +05 24 40.84  .38361 1.3532 150.4 21.8  36d  87
2024 09 12 23  21 31 50.670   +05 24 19.43  .38366 1.3531 150.4 21.8  36d  87
2024 09 13 00  21 31 52.862   +05 23 58.00  .38371 1.3531 150.4 21.8  36d  87
2024 09 13 01  21 31 55.059   +05 23 36.55  .38376 1.3531 150.4 21.8  36d  87